Regional Weather Roundup
Issued by NWS Wakefield, VA

Home | Current Version | Previous Version | Graphics & Text | Print | Product List | Glossary On
Versions: 1 2 3 4 5 6 7 8 9 10 11 12 13 14 15 16 17 18 19 20 21 22 23 24 25 26 27 28 29 30 31 32 33 34 35 36 37 38 39 40 41 42 43 44 45 46 47 48 49 50
000
ASUS41 KAKQ 171910
RWRAKQ

REGIONAL WEATHER ROUNDUP
NATIONAL WEATHER SERVICE WAKEFIELD VA
300 PM EDT WED SEP 17 2014

Note: "fair" indicates few or no clouds below 12,000 feet with no
significant weather and/or obstructions to visibility. * = Denotes
station may not report precipitation (e.g., rain,snow,etc.),
thunder or fog.

VAZ042-051-052>054-056-172000-
NORTHERN VIRGINIA

CITY           SKY/WX    TMP DP  RH WIND       PRES   REMARKS
WASH NATIONAL  PTSUNNY   75  47  36 S3        29.98F
DULLES         MOSUNNY   71  49  45 CALM      29.98F
FORT BELVOIR   MOSUNNY   74  51  44 VRB5      29.98F
QUANTICO       MOSUNNY   73  52  47 S3        29.98F
FREDERICKSBRG* PTSUNNY   77  51  40 CALM      29.96F
STAFFORD*      PTSUNNY   73  53  49 CALM      30.02F
WARRENTON      MOSUNNY   76  58  52 E5        29.98F
CULPEPER*      PTSUNNY   79  48  34 S5        29.98F
MANASSAS*      NOT AVBL
LEESBURG*      SUNNY     73  52  46 NW5       29.99F
WINCHESTER     MOSUNNY   72  46  40 S8        29.99F
FRONT ROYAL*   MOCLDY    70  50  49 NE3       29.97F
LURAY*         PTCLDY    72  48  43 SW3       29.98F
$$

VAZ048-049-060>072-079>083-172000-
CENTRAL AND SOUTH CENTRAL VIRGINIA...AND NORTH CENTRAL NORTH CAROLINA

CITY           SKY/WX    TMP DP  RH WIND       PRES   REMARKS
RICHMOND       PTSUNNY   81  53  37 VRB5      29.95F
CHESTERFIELD*  CLOUDY    75  16  10 NE3       29.98F
PETERSBURG*    MOSUNNY   76  55  47 E3        29.96F
HANOVER        MOSUNNY   75  54  47 CALM      29.98F
TAPPAHANNOCK*  MOSUNNY   75  50  41 E5        29.98F
CHARLOTTSVILLE PTSUNNY   74  51  44 SW3       29.98F
ORANGE*        CLOUDY    73  50  43 S5        29.99F
LOUISA*        CLOUDY    73  52  46 CALM      29.97F
FARMVILLE*     SUNNY     79  52  38 E7        29.95F
CREWE*         CLEAR     78  56  46 CALM      29.96F
FORT PICKETT*    N/A    N/A N/A N/A MISG        N/A
LUNENBURG*     PTCLDY    76  58  54 CALM      29.96F
SOUTH HILL*    MOSUNNY   75  63  64 CALM      30.01F
LAWRENCEVILLE* PTCLDY    75  62  63 E5        29.95F
ROANOKE RAPIDS CLOUDY    72  63  73 E8        29.95F
RALEIGH        MOSUNNY   79  63  57 E10       29.93F
$$

VAZ088>098-172000-
SOUTHEAST VIRGINIA

CITY           SKY/WX    TMP DP  RH WIND       PRES   REMARKS
NORFOLK        PTSUNNY   73  58  59 NE10      29.96F
VIRGINIA BEACH PTSUNNY   75  58  55 E12       29.96F
NORFOLK NAVAL  PTSUNNY   76  59  55 E12       29.98F
WEST POINT*    MOSUNNY   76  56  49 E7        29.98F
NEWPORT NEWS   CLOUDY    78  62  57 NE9       29.97F
LANGLEY AFB    PTSUNNY   75  60  61 E10       29.96F
FORT EUSTIS    MOSUNNY   76  53  45 VRB7      29.95F
WILLIAMSBURG*  MOSUNNY   77  61  57 E5        29.97F
HR EXEC AP*    CLOUDY    73  61  64 NE8       29.98F
FRANKLIN*      PTSUNNY   75  59  57 E9        29.96F
WAKEFIELD      MOSUNNY   75  58  55 VRB5      29.96F
$$

VAZ020-022-025-037-045-172000-
WEST CENTRAL AND SOUTHWEST VIRGINIA

CITY           SKY/WX    TMP DP  RH WIND       PRES   REMARKS
STAUNTON*      CLOUDY    73  47  39 CALM      30.01F
HOT SPRINGS VA CLOUDY    56  39  51 S6        30.08F
LYNCHBURG      MOSUNNY   73  55  53 CALM      30.00F
DANVILLE       CLOUDY    76  62  62 NE6       29.97F
SOUTH BOSTON*  NOT AVBL
MARTINSVILLE   CLOUDY    73  59  62 NE5       30.01F
ROANOKE        PTSUNNY   69  53  56 SE3       30.02F
BLACKSBURG     PTSUNNY   68  59  73 SE6       30.04S
DUBLIN*        PTSUNNY   68  57  68 E5        30.03S
MARION*        CLOUDY    69  56  64 E9        30.04S
HILLSVILLE*    PTSUNNY   66  56  68 E3        30.03F
RICHLANDS*     CLOUDY    71  56  60 CALM      30.01S
WISE*          CLOUDY    68  52  56 NW5       30.03F
ABINGDON*      PTSUNNY   73  59  63 CALM      29.99S
$$

MDZ021>025-VAZ099-100-172000-
SOUTHERN MARYLAND AND THE DELMARVA PENINSULA

CITY           SKY/WX    TMP DP  RH WIND       PRES   REMARKS
PATUXENT RIVER MOSUNNY   74  51  44 SE8       29.98F
BAY BRIDGE APT   N/A     72  45  37 NW6       29.99F
LEONARDTOWN    CLOUDY    70  50  49 CALM      30.00F
DOVER          SUNNY     74  49  40 E9        29.97F
GEORGETOWN     MOSUNNY   75  45  34 E14G22    29.99F
EASTON         MOSUNNY   73  48  40 N5        30.01F
CAMBRIDGE      PTSUNNY   77  46  33 CALM      29.97F
SALISBURY      SUNNY     78  48  34 VRB6      29.97F
OCEAN CITY     SUNNY     72  50  45 E10       29.99F
WALLOPS ISLAND PTSUNNY   73  56  54 E9        29.99F
ACCOMACK*      PTSUNNY   73  54  49 E8        29.98F
$$

NCZ012>017-030>032-172000-
EASTERN NORTH CAROLINA

CITY           SKY/WX    TMP DP  RH WIND       PRES   REMARKS
ELIZABETH CITY PTSUNNY   74  61  63 NE14      29.95F
AHOSKIE*       MOSUNNY   73  62  68 NE5       29.95F
EDENTON*       PTSUNNY   77  63  62 NE8       29.94F
CURRITUCK*     CLOUDY    75  57  54 NE10      29.96F
KILL DEVIL HLS CLOUDY    75  62  63 NE10      29.93F
MANTEO         CLOUDY    76  62  63 NE15G22   29.93F
CAPE HATTERAS  PTSUNNY   75  67  76 NE9G18    29.91F
TARBORO*       MOCLDY    77  65  68 NE8       29.95F
GOLDSBORO      PTSUNNY   76  71  84 NE2       29.90F
WASHINGTON     MOSUNNY   76  65  67 NE10      29.93S
GREENVILLE     MOSUNNY   79  68  69 E8        29.95S
NEW BERN       PTSUNNY   79  68  69 E14G20    29.92F
WILMINGTON     MOSUNNY   81  69  67 E8        29.87F
$$

VAZ048-172000-
ELSEWHERE

CITY           SKY/WX    TMP DP  RH WIND       PRES   REMARKS
HARRISBURG PA  MOSUNNY   72  44  36 W3        29.97F
BALTIMORE      MOSUNNY   71  49  45 E8        29.97F
ANNAPOLIS      MOSUNNY   70  50  49 SE8       29.98F
ANDREWS AFB    PTSUNNY   72  52  49 E5        29.98F
WILMINGTON DE  SUNNY     73  49  42 VRB3      29.99F
PHILADELPHIA   MOSUNNY   73  47  39 S7        29.98F
WILDWOOD NJ*   PTSUNNY   72  45  37 SE3       29.99F
ATLANTIC CITY  MOSUNNY   72  55  55 SE7       29.98F
HENDERSON NC     N/A     73  60  63 NE7       29.96F
GREENSBORO     PTSUNNY   75  62  64 NE3       29.96F
ROCKY MOUNT    CLOUDY    75  65  70 NE7       29.94F
FAYETTEVILLE   CLOUDY    78  69  73 NE5       29.90F
CHARLOTTE      CLOUDY    72  63  73 CALM      29.97F
$$

VAZ100-172000-
MARINE

STATION/POSITION TIME  TEMP    WIND        PRES    WAVE   SWELL
                       AIR SEA DIR/SP/G            HT/PER HT/PER
                 (UTC) (F)     (DEG/KT/KT) (MB)    (FT/S) (FT/S)
44066 TX TWR #4  1900   66 74  360/  8/ 12 1015.2F   4/14   3/14
CAPE MAY NJ      1900   70 76  230/  5/  7 1014.9F
LEWES DE         1900   69 72   70/  6/  8 1015.2F
15NM E FENWICK I 1900   69 73              1015.2F   4/14
OCEAN-CITY-INLET 1900   70 72   80/  7/ 10 1015.1F
WACHAPREAGUE VA  1900   71 74   70/  9/ 12 1015.2F
THOMAS POINT MD  1900   70 75  190/  3/  4 1016.4F
GOOSES REEF MD   1900   70      40/  4/  6 1016.0F
COVE POINT MD    1900   70      20/  5/  7 1015.1F
SOLOMONS ISLAND  1900      77                N/A
BISHOPS HEAD MD  1900   71 74  180/  4/  6 1014.8F
PINEY POINT MD   1900          170/  6/  8   N/A
POTOMAC MD       1900   71      90/  4/  8 1014.8F
CAMBRIDGE MD     1900   73 74   10/  1/  3 1014.8F
LEWISETTA VA     1900   70 74   90/  6/  7 1014.8F
RAPPAHANNOCK LGT 1900           20/  7/  8 1015.7S
STINGRAY PT      1900   72      60/  6/ 10   N/A
YORK RVR RNG VA  1900   72      90/  9/ 11 1014.5F
YORKTOWN VA      1900   72 77   90/  9/ 11 1014.6F
JAMESTOWN VA     1900   72     150/  8/ 14   N/A
DOMINION TERM VA 1900   74      80/  2/  6 1015.0F
KIPTOPEKE VA     1900      79   80/  8/ 11   N/A
CHES BAY BRIDGE  1900   71 76   50/ 11/ 12 1014.5S
CAPE HENRY VA    1900   71      60/ 11/ 13 1013.8F
CHESAPEAKE LGHT  1800   70      60/ 16/ 17 1015.7F
WILLOUBY STN VA  1900   72      80/ 11/ 12 1013.6F
S CRANEY ISL VA  1900           40/  9/ 12 1014.4F
CAPE HENRY BUOY  1900      76                N/A     4/13   3/13
1ST LANDING BUOY 1900   72      70/ 10/ 14 1014.7F
CAPE CHARLES BUO 1900      76                N/A     4/14   3/14
OFFSHORE WE BUOY 1900      75                N/A     4/13   3/13
64NM E OF VA BCH 1900   73 77   40/ 14/ 17 1013.6F   5/14   5/14
DUCK PIER NC     1900   72 76   40/ 16/ 18 1013.2F
44100 DUCK FRF   1900      75                N/A     5/13   3/13
44056 DUCK FRF   1900                        N/A     4/13   3/13
OREGON INLET NC  1900   74 76   30/ 14/ 19 1013.1S
HATTERAS NC      1900   75 79   50/ 10/ 14 1013.2F
DIAMOND SHLS NC  1900   78      50/ 12/ 16 1011.9F   6/14   5/14
CAPE LOOKOUT NC  1800   72     100/ 14/ 16 1012.7F
$$



USA.gov is the U.S. government's official web portal to all federal, state and local government web resources and services.